Other Public Products
Issued by NWS Charleston, SC

Current Version | Previous Version | Text Only | Print | Product List | Glossary On
Versions: 1 2 3 4 5 6 7 8 9 10 11 12 13 14 15 16 17 18 19 20 21 22 23 24 25 26 27 28 29 30 31 32 33 34 35 36 37 38 39 40 41 42 43 44 45 46 47 48 49 50
000
FPUS82 KCHS 172312
OPUCHS

TEST...KCHS/KSAV Gateway Observations...TEST
National Weather Service Charleston SC
600 PM EST FRI NOV 17 2017

NOTE: "fair" indicates few or no clouds below 12,000 feet with no
significant weather and/or obstructions to visibility.

SCZ050-WAZ558-NCZ071-TXZ119-213-PAZ071-DCZ001-FLZ074-172-MI076-
NYZ176-178-MAZ016-IL014-TNZ027-NJZ106-GAZ044-MD014-180000-

...Gateway Observations for Charleston International...

CITY           SKY/WX    TMP DP  RH WIND       PRES   REMARKS
Chas Airport   CLEAR     53  44  71 SE8       30.15S
Seattle        PTSUNNY   49  38  65 SW14G22   30.17R
Charlotte      PTCLDY    54  32  43 S5        30.12F
Dallas DFW     MOCLDY    82  65  56 S21       29.73F
Dallas Love    MOCLDY    81  64  56 S15       29.75F
Philladelphia  PTCLDY    47  20  34 NW7       30.13S
Wash National  PTCLDY    50  27  40 NW3       30.16S
Baltimore      PTCLDY    41  28  60 CALM      30.14S
Miami          PTCLDY    76  62  62 NE10      29.99F
Detroit        CLOUDY    40  33  76 S5        29.98F WCI  37
Newark         PTCLDY    44  15  31 W7        30.10R
Laguardia      PTCLDY    46  20  35 NW18      30.07R
J F K          PTCLDY    45  15  30 NW16G25   30.08S
Boston Logan   CLEAR     40  19  43 NW12      29.97R WCI  33
Ft. Lauderdale PTCLDY    74  62  66 NE10G20   29.99S
Chicago O`Hare LGT RAIN  42  37  82 S14       29.70F
Chicago Midway LGT RAIN  44  38  79 S12G22    29.71F
Houston Bush   MOCLDY    82  65  56 S9        29.90F
Houston Hobby  PTCLDY    79  66  64 S13G21    29.92S
Nashville      MOCLDY    59  34  39 SE9       29.97F
Atlanta        PTCLDY    60  44  55 SE3       30.09S

$$

GAZ044-118-TXZ119-213-NCZ071-DCZ001-MDZ014-506-PAZ021-071-NJZ106-
NYZ176-178-MAZ106-OHZ011-021-055-MIZ076-KYZ091-ILZ014-INZ047-
MNZ060-ONZ431-180000-

...Gateway Observations for Savannah International...

CITY           SKY/WX    TMP DP  RH WIND       PRES   REMARKS
Savannah Arpt  PTCLDY    58  45  62 E5        30.15R
Atlanta        PTCLDY    60  44  55 SE3       30.09S
Charlotte      PTCLDY    54  32  43 S5        30.12F
Dallas DFW     MOCLDY    82  65  56 S21       29.73F
Houston Bush   MOCLDY    82  65  56 S9        29.90F
Wash National  PTCLDY    50  27  40 NW3       30.16S
Wash Dulles    PTCLDY    43  30  60 CALM      30.15S
Baltimore      PTCLDY    41  28  60 CALM      30.14S
Philadelphia   PTCLDY    47  20  34 NW7       30.13S
Newark         PTCLDY    44  15  31 W7        30.10R
Laguardia      PTCLDY    46  20  35 NW18      30.07R
J F K          PTCLDY    45  15  30 NW16G25   30.08S
Boston         CLEAR     40  19  43 NW12      29.97R WCI  33
Pittsburg      CLOUDY    40  28  62 SE8       30.05F WCI  34
Akron          MOCLDY    41  28  60 S9        30.02F
Cleveland      CLOUDY    43  30  60 S12       30.03F
Cincinnati     CLOUDY    44  35  70 S9        29.97F
Columbus       CLOUDY    43  32  64 SE3       30.01F
Detroit        CLOUDY    40  33  76 S5        29.98F WCI  37
Chicago O`Hare LGT RAIN  42  37  82 S14       29.70F
Minneapolis    DRIZZLE   38  38 100 E5        29.62R FOG     WCI  34
Indianapolis   CLOUDY    46  32  58 SE12      29.89F
Toronto Canada MOCLDY    34  25  69 SE6       30.06F WCI  29

$$




USA.gov is the U.S. government's official web portal to all federal, state and local government web resources and services.